Location: Baltele
(46.2667°N, 22.3500°E)
Time: 23:58:39
(UTC+00:00)

Daily predictions for brighter satellites

Satellite Brightness Start Highest point End
(mag) Time Altitude Azimuth Time Altitude Azimuth Time Altitude Azimuth
CSL-04 Debris 4.4 18:22:38 10° S 18:28:03 78° WSW 18:33:32 10° NNW
Cosmos 1892 Rocket 3.5 18:25:57 10° N 18:30:17 83° E 18:34:34 10° S
Meteor 1-31 Rocket 2.6 18:26:52 10° S 18:30:19 79° WSW 18:33:47 10° NNW
Cosmos 1802 Rocket 4.0 18:26:40 10° S 18:32:50 84° E 18:39:00 10° N
DELTA 2 R/B (1) 4.1 18:31:21 10° WSW 18:36:36 43° S 18:41:49 10° ESE
Okean O Rocket 2.5 18:34:23 10° SE 18:38:13 32° ENE 18:42:03 10° N
ATLAS 3B R/B 4.4 18:32:46 10° NW 18:39:24 33° WSW 18:45:41 10° S
Cosmos 2322 Rocket 3.4 18:38:56 10° N 18:43:52 29° NE 18:48:45 10° ESE
Cosmos 2082 Rocket 2.5 18:42:04 10° SSW 18:47:47 75° WNW 18:53:31 10° NNE
Spot 2 Rocket 3.9 18:44:15 10° SE 18:49:04 49° ENE 18:53:55 10° N
ERS-1 Rocket 3.1 18:44:15 10° SSE 18:49:15 81° WSW 18:54:18 10° NNW
Cosmos 2237 4.4 18:45:56 10° NNW 18:51:42 81° WSW 18:57:25 10° SSE
SL-08 R/B 3.5 18:47:08 10° NNE 18:51:51 54° E 18:56:26 10° S
Cosmos 1743 3.4 18:49:04 10° NNW 18:51:55 39° W 18:54:44 10° SSW
USA 290 4.3 18:51:30 10° ESE 18:51:57 10° E 18:52:37 10° E
Feng Yun 1-1 Rocket 4.5 18:47:03 10° S 18:52:24 70° WSW 18:57:53 10° NNW
Terra 1.9 18:47:51 10° SSE 18:52:33 85° WSW 18:57:17 10° NNW
Cosmos 2233 Rocket 4.0 18:47:12 10° S 18:53:21 77° E 18:59:31 10° N
BREEZE-M DEB (TANK) 3.5 18:48:04 10° SW 18:53:32 34° SSE 18:55:56 10° E
Cosmos 2369 4.0 18:48:57 10° NNW 18:54:39 69° WSW 19:00:19 10° SSE
Cosmos 1782 3.1 18:52:20 10° SSW 18:55:47 59° W 18:59:17 10° N
CZ-4B R/B 4.3 18:55:34 11° ESE 18:57:49 18° ENE 19:00:17 10° NNE
BREEZE-M DEB (TANK) 3.8 18:56:03 10° W 18:58:59 45° SSW 19:05:36 12° SE
Cosmos 1758 Rocket 3.9 18:55:47 10° N 19:00:05 51° ENE 19:04:05 12° SSE
Okean-O 2.8 18:57:25 11° SSE 19:01:32 54° ENE 19:05:50 10° N
ISS -2.0 19:01:09 10° WNW 19:04:12 31° N 19:07:14 10° ENE
Cosmos 1992 Rocket 4.2 19:05:18 10° SSW 19:10:30 78° WNW 19:15:44 10° NNE
Cosmos 2278 4.0 19:06:46 10° NNW 19:12:26 59° ENE 19:17:00 16° SE
Cosmos 1461 2.7 19:11:14 10° SW 19:14:55 78° NW 19:18:37 10° NE
CZ-2C R/B 4.3 19:14:58 11° E 19:15:51 12° ENE 19:17:01 10° NE
SL-16 R/B 2.2 19:10:21 10° NNW 19:16:04 78° ENE 19:20:43 16° SSE
Cosmos 2151 2.9 19:16:50 10° N 19:20:57 66° E 19:23:58 17° SSE
Helios 1A Rocket 4.1 19:19:33 10° N 19:22:25 32° WNW 19:25:15 10° SW
Cosmos 1602 Rocket 3.8 19:19:35 10° N 19:23:49 50° ENE 19:26:40 19° SSE
BREEZE-M DEB 4.2 19:19:48 10° SW 19:24:08 37° SSE 19:29:55 10° ENE
CZ-4 R/B 3.8 19:25:30 10° SW 19:27:56 17° W 19:30:23 10° NW
Cosmos 1980 Rocket 4.4 19:24:19 10° NW 19:28:18 20° W 19:32:15 10° SW
Cosmos 2098 Rocket 3.6 19:25:46 17° SSE 19:28:54 40° E 19:32:46 10° NNE
Cosmos 1933 3.1 19:27:46 12° S 19:31:10 75° E 19:34:59 10° NNE
Cosmos 1437 Rocket 2.5 19:29:55 10° S 19:33:27 86° W 19:37:04 10° N
YAOGAN 11 4.1 19:29:55 10° NNE 19:34:23 88° WNW 19:38:52 10° SSW
COSMOS 2406 3.6 19:28:58 10° SW 19:34:40 68° WNW 19:40:25 10° NNE
Cosmos 1626 Rocket 4.1 19:35:21 10° NNW 19:39:39 56° W 19:43:30 13° S
Cosmos 1486 Rocket 4.0 19:38:41 10° NNW 19:43:58 78° ENE 19:47:17 23° SSE
Meteor 1-20 Rocket 4.4 19:38:26 10° NNW 19:44:03 74° W 19:48:49 15° S
Cosmos 540 Rocket 4.1 19:42:50 22° SSE 19:45:24 36° ESE 19:50:06 10° NE
USA 186 2.5 19:44:41 21° SSW 19:46:07 39° W 19:48:44 10° NNW
Cosmos 2333 Rocket 2.4 19:43:09 10° NNW 19:48:49 68° WSW 19:52:44 21° S
Cosmos 1805 2.7 19:46:25 10° N 19:49:41 70° E 19:50:47 37° SSE
NOSS 3 (A) 4.2 19:47:43 10° NW 19:50:07 75° SW 19:50:47 47° SSE
Cosmos 1833 4.4 19:48:20 15° S 19:52:44 49° ESE 19:58:09 10° NE
Cosmos 2360 Rocket 2.2 19:49:21 10° NNW 19:55:03 81° ENE 19:58:22 26° SSE
Cosmos 44 4.4 19:50:11 10° NNW 19:55:16 40° NE 19:58:36 19° ESE
Cosmos 1606 Rocket 3.6 19:54:15 27° SSE 19:56:26 60° E 20:00:41 10° NNE
Cosmos 1726 Rocket 3.6 20:02:09 35° SE 20:03:24 49° E 20:07:19 10° NNE
Cosmos 1464 Rocket 3.9 19:58:51 18° S 20:03:35 78° E 20:09:47 10° N
IRS-1C Rocket 4.0 20:00:36 26° SSE 20:03:41 86° ENE 20:09:00 10° NNW
Cosmos-2242 3.9 20:05:15 28° ESE 20:05:49 29° E 20:09:24 10° NNE
NOSS 3-4 (A) 3.9 19:59:53 10° NW 20:06:41 77° SW 20:11:35 26° SSE
Cosmos 2219 Rocket 2.3 20:01:28 10° NNW 20:07:07 65° ENE 20:10:02 29° SE
NOSS 3-4 (C) 3.9 20:00:31 10° NW 20:07:22 78° SW 20:12:15 26° SSE
Cosmos 2333 4.2 20:01:42 10° NNW 20:07:28 85° ENE 20:10:30 29° SSE
Meteor 2-10 4.2 20:07:30 10° NNW 20:13:16 85° W 20:16:27 28° S
Okean O Rocket 3.3 20:11:01 11° SSW 20:14:25 26° W 20:18:02 10° NW
Cosmos 1428 Rocket 4.4 20:10:44 10° N 20:16:59 84° E 20:20:22 29° SSE
DELTA 2 R/B (1) 4.4 20:17:30 10° WSW 20:22:19 31° SSW 20:23:10 29° S
Ariane Rocket 3.2 20:19:58 28° S 20:22:36 66° WSW 20:27:39 10° NNW
Cosmos 1092 Rocket 4.3 20:16:48 10° N 20:22:50 52° ENE 20:25:35 31° SE
USA 290 3.3 20:23:53 21° SW 20:25:37 42° WNW 20:28:38 10° N
Cosmos 2322 Rocket 2.7 20:22:40 10° NW 20:28:10 53° WSW 20:30:55 28° S
Okean 1-7 Rocket 4.1 20:26:24 10° NNW 20:30:46 53° W 20:32:44 30° SSW
Cosmos 2221 4.3 20:31:12 17° E 20:31:12 17° E 20:33:46 10° NE
CZ-4B R/B 4.0 20:30:15 24° SW 20:31:21 29° W 20:34:27 10° NW
Cosmos 1763 Rocket 3.5 20:28:24 18° SSW 20:32:21 81° WNW 20:37:40 10° NNE
RESURS DK-1 3.7 20:29:09 10° N 20:32:37 28° NE 20:33:44 24° E
Cosmos 1470 4.3 20:31:51 10° NNE 20:34:01 19° ENE 20:34:01 19° ENE
Helios 1A 3.4 20:34:25 10° NNE 20:38:00 40° E 20:38:00 40° E
ISS -2.9 20:38:12 10° WNW 20:41:28 47° NNE 20:42:10 39° ENE
CZ-4B R/B 4.3 20:41:03 25° SSW 20:43:17 39° W 20:47:49 10° NNW
Cosmos 2034 Rocket 4.1 20:39:34 26° SSW 20:43:27 81° W 20:49:49 10° N
Cosmos 990 Rocket 4.0 20:38:20 10° NNW 20:43:29 70° WSW 20:45:15 41° S
BREEZE-M DEB (TANK) 3.2 20:41:43 10° WNW 20:43:10 27° NW 20:43:10 27° NW
Cosmos 1898 Rocket 4.2 20:40:01 10° N 20:44:58 42° ENE 20:46:45 32° ESE
CZ-2C R/B 3.6 20:46:33 27° W 20:46:33 27° W 20:48:46 10° NW
Cosmos 2237 Rocket 3.9 20:42:13 10° N 20:46:45 24° NE 20:50:17 14° E
Helios 1B rocket 2.9 20:53:31 38° ENE 20:53:31 38° ENE 20:56:42 10° N
Cosmos 2279 Rocket 4.2 20:55:29 39° SE 20:57:26 53° E 21:03:31 10° NNE
Cosmos 1953 Rocket 3.9 20:53:12 10° NNW 20:57:28 56° W 20:58:24 45° SW
SL-16 R/B 4.3 20:55:54 10° WNW 20:59:25 17° W 21:02:34 11° SW
KORONAS-FOTON 3.7 21:02:39 65° NNE 21:02:39 65° NNE 21:05:36 10° N
COSMOS 2428 3.0 20:57:27 10° NNW 21:03:06 60° ENE 21:05:02 39° ESE
Meteor 1-26 Rocket 4.4 21:01:58 32° SSW 21:04:33 70° WNW 21:10:16 10° N
Cosmos 1842 3.8 21:05:57 39° NNE 21:05:57 39° NNE 21:08:08 10° NNE
Cosmos 1634 Rocket 3.9 21:02:43 40° S 21:05:09 85° E 21:11:24 10° N
Cosmos 841 Rocket 3.6 21:06:35 49° SE 21:07:12 52° ESE 21:12:17 10° NNE
Cosmos 1766 3.6 21:05:01 10° NNW 21:07:42 45° WNW 21:07:42 45° WNW
Cosmos 2058 Rocket 3.3 21:10:25 50° SW 21:11:19 64° W 21:15:38 10° N
Cosmos 1536 2.9 21:11:13 10° NNW 21:14:46 60° W 21:14:46 60° W
Cosmos 1707 3.9 21:15:38 27° NW 21:15:38 27° NW 21:17:40 10° NNW
Cosmos 2026 Rocket 4.5 21:11:38 10° NNW 21:17:49 55° W 21:20:32 33° SSW
Meteor 1-11 Rocket 4.3 21:15:17 10° N 21:20:42 46° ENE 21:22:08 38° ESE
Cosmos 372 Rocket 3.9 21:16:59 10° NNW 21:22:05 72° WSW 21:22:57 58° SSW
Cosmos 1271 Rocket 3.1 21:26:27 53° N 21:26:27 53° N 21:29:10 10° N
CZ-2C R/B 3.8 21:21:45 10° NNE 21:26:12 58° E 21:26:16 58° ESE
Cosmos 2266 Rocket 4.3 21:21:54 10° N 21:27:47 51° ENE 21:29:31 40° ESE
ARGOS Delta rocket 4.4 21:24:50 10° NNE 21:29:55 50° E 21:30:33 47° ESE
Cosmos 2297 Rocket 2.6 21:30:41 44° ESE 21:31:03 44° ESE 21:36:23 10° NE
Cosmos 1975 2.9 21:29:53 10° N 21:33:03 63° N 21:33:03 63° N
ARIANE 5 R/B 2.6 21:35:44 65° E 21:36:02 68° ENE 21:40:28 10° N
Cosmos 44 4.1 21:31:27 10° NW 21:36:26 40° WSW 21:36:53 39° SW
Meteor 1-27 Rocket 4.4 21:36:41 38° ESE 21:37:36 41° E 21:42:55 10° NNE
Cosmos 2360 Rocket 4.2 21:34:55 10° WNW 21:38:16 16° W 21:40:06 14° WSW
ALOS 2 2.8 21:38:11 57° E 21:38:28 59° ENE 21:42:47 10° N
Cosmos 2322 3.8 21:40:17 10° NNW 21:45:54 61° WSW 21:46:51 53° SSW
Cosmos 858 Rocket 4.4 21:43:14 10° NNW 21:48:26 74° ENE 21:49:15 61° SE
Meteor 1-14 Rocket 4.2 21:43:28 10° NNW 21:48:57 67° W 21:50:02 54° SSW
Cosmos 1937 Rocket 3.3 21:45:10 10° NNW 21:50:18 77° WSW 21:50:52 68° SSW
Cosmos 2219 Rocket 3.8 21:46:23 10° NW 21:50:31 21° W 21:51:43 20° WSW
NOSS 0 Rocket 3.9 21:54:51 10° NNW 22:01:00 70° WSW 22:02:15 55° S
PSLV R/B 3.5 21:56:54 10° NNE 22:01:07 74° E 22:01:07 74° E
USA 234 3.3 21:57:23 10° ENE 22:03:45 52° SE 22:04:43 48° SSE
Cosmos 1655 Rocket 4.5 22:00:07 10° N 22:06:12 51° ENE 22:08:07 39° SE
Cosmos 2221 3.2 22:07:29 43° W 22:07:39 43° WNW 22:11:40 10° N
Cosmos 1470 4.5 22:05:26 10° NW 22:07:13 21° WNW 22:07:13 21° WNW
ACS3 Solar Sail 3.3 22:04:03 10° NE 22:08:26 21° E 22:09:51 19° ESE
RESURS DK-1 3.8 22:06:27 10° NW 22:08:57 26° W 22:08:57 26° W
Cosmos 1812 Rocket 4.1 22:17:38 47° W 22:17:53 48° WNW 22:22:12 10° N
ISS -0.8 22:15:05 10° WNW 22:15:06 10° WNW 22:15:06 10° WNW
CZ-2C R/B 2.9 22:19:21 47° ESE 22:20:28 58° ENE 22:25:34 10° N
SL-16 R/B 3.6 22:15:34 10° NNW 22:20:42 33° NE 22:24:13 18° ESE
ATLAS 5 CENTAUR R/B 4.1 22:25:30 31° SE 22:27:04 35° E 22:40:13 10° NE
Cosmos 192 4.4 22:22:27 10° NNW 22:27:22 66° ENE 22:28:01 59° ESE
BlueWalker 3 3.4 22:29:20 29° NE 22:29:20 29° NE 22:31:13 10° ENE
Meteor 2-20 Rocket 4.2 22:26:51 61° S 22:27:55 83° E 22:33:39 10° N
MetOp-A 3.6 22:29:28 79° S 22:29:45 86° WSW 22:34:26 10° NNW
Cosmos 2237 Rocket 2.1 22:25:41 10° NNW 22:31:21 70° WSW 22:32:03 62° SSW
Lacrosse 4 Rocket 1.5 22:33:27 66° N 22:33:27 66° N 22:37:05 10° NNE
Sich 1 3.8 22:30:33 10° N 22:34:29 39° ENE 22:34:37 39° E
Cosmos 1980 3.7 22:30:05 10° NNW 22:35:39 60° WSW 22:36:13 57° SW
Cosmos 2227 Rocket 2.2 22:40:33 60° SSE 22:41:18 67° ESE 22:46:57 10° NNE
CZ-2C R/B 3.3 22:35:59 10° NNE 22:41:48 84° WNW 22:43:04 57° SSW
Cosmos 1814 Rocket 3.8 22:43:20 71° S 22:43:51 81° ESE 22:49:07 10° NNE
CENTAUR R/B 4.4 22:43:11 11° ESE 22:43:59 11° E 22:45:45 10° E
Cosmos 1842 Rocket 3.5 22:46:35 76° E 22:46:35 76° E 22:50:55 10° NNE
COSMOS 2428 4.1 22:42:30 10° NW 22:46:51 23° W 22:47:00 23° WSW
Cosmos 1758 4.3 22:44:02 10° N 22:47:04 35° ENE 22:47:04 35° ENE
Cosmos 2263 Rocket 2.5 22:46:56 46° SE 22:47:31 47° ESE 22:52:51 10° NE
Okean 3 Rocket 4.0 22:44:14 10° N 22:48:40 53° ENE 22:49:03 51° E
Meteor 2-4 Rocket 3.6 22:48:37 58° SW 22:49:34 72° WNW 22:55:08 10° N
GP-B 4.1 22:49:26 10° NNW 22:53:26 35° W 22:53:31 35° W
Cosmos 158 Rocket 4.1 22:54:44 58° SW 22:55:41 73° WNW 23:01:02 10° NNE
Alouette 2 Rocket 3.8 22:51:58 10° NNW 22:55:57 66° WSW 22:56:04 65° WSW
Cosmos 1805 Rocket 4.5 22:52:25 10° N 22:56:29 38° ENE 22:57:04 36° E
Cosmos 1238 Rocket 3.8 23:02:13 38° WNW 23:02:13 38° WNW 23:06:20 10° N
Meteor 2-10 Rocket 3.7 23:00:41 10° NNW 23:06:16 72° W 23:07:18 58° SSW
Cosmos 1553 Rocket 4.1 23:05:36 47° SSE 23:07:29 73° E 23:13:54 10° NNE
CZ-4C R/B 3.8 23:05:09 10° NNE 23:07:50 50° NE 23:07:50 50° NE
Iridium 4 Rocket 3.7 23:10:47 55° SSW 23:12:00 74° W 23:17:51 10° N
Cosmos 1340 Rocket 3.5 23:08:27 10° N 23:12:09 44° ENE 23:12:14 44° E
DELTA 2 DEB (DPAF) 4.2 23:10:27 10° NNE 23:13:23 52° NE 23:13:23 52° NE
Cosmos 2297 Rocket 3.5 23:12:26 22° W 23:15:12 33° NW 23:20:18 10° NNE
SL-08 R/B 4.4 23:10:53 10° N 23:17:13 86° E 23:19:16 46° SSE
Cosmos 1953 4.4 23:16:10 10° NNE 23:18:45 18° ENE 23:19:56 16° E
Cosmos 1408 Rocket 3.6 23:14:38 10° N 23:18:55 68° E 23:19:16 65° ESE
IDEFIX/ARIANE 42P 4.1 23:16:12 10° NE 23:20:28 25° E 23:22:19 20° ESE
SL-14 R/B 3.5 23:23:11 61° NW 23:23:11 61° NW 23:26:36 10° N
Cosmos 2082 4.2 23:24:11 39° SE 23:25:24 45° ESE 23:30:44 10° NE
SeaSat 1 2.3 23:36:47 57° S 23:37:44 76° WSW 23:42:39 10° NNW
Cosmos 1745 Rocket 4.0 23:33:42 10° N 23:39:52 74° E 23:42:39 35° SSE
Atlas Centaur 2 4.3 23:43:45 16° SE 23:43:45 16° SE 23:45:59 10° SE
Cosmos 1151 Rocket 2.9 23:44:31 64° WSW 23:44:50 68° W 23:49:10 10° N
Landsat 5 4.4 23:41:20 10° N 23:44:57 32° WNW 23:45:15 32° WNW
USA 234 3.7 23:40:25 10° NE 23:46:51 61° NNW 23:52:03 16° WSW
Spot 1 4.4 23:42:30 10° NNE 23:47:15 68° ESE 23:48:25 49° SSE
BREEZE-M DEB (TANK) 4.5 23:44:49 10° WNW 23:50:58 35° N 23:53:31 10° ENE
BREEZE-M DEB (TANK) 3.4 23:38:20 10° WSW 23:51:13 82° NNW 23:55:09 10° ENE
ACS3 Solar Sail 1.8 23:45:21 10° N 23:51:14 67° WNW 23:53:18 41° SW
